Location: Miri
(4.3833°N, 113.9833°E)
Time: 22:38:33
(UTC+08:00)

X-37B - Visible Passes

Search period start: 24 July 2021 00:00
Search period end: 03 August 2021 00:00
Orbit: 383 x 392 km, 45.0° (Epoch: 01 July)

Date Brightness Start Highest point End Pass type
(mag) Time Alt. Az. Time Alt. Az. Time Alt. Az.
24 Jul 0.7 05:04:59 54° NW 05:05:01 54° NW 05:08:08 10° NNE visible
25 Jul 4.2 04:09:41 10° ENE 04:09:41 10° ENE 04:09:45 10° ENE visible
26 Jul 3.3 04:46:38 13° N 04:46:38 13° N 04:47:12 10° N visible
